Miscellaneous Local Product
Issued by NWS Hastings, NE

Home | Current Version | Previous Version | Text Only | Print | Product List | Glossary Off
Versions: 1 2 3 4 5 6 7 8 9 10 11 12 13 14 15 16 17 18 19 20 21 22 23 24 25 26 27 28 29 30 31 32 33 34 35 36 37 38 39 40 41 42 43 44 45 46 47 48 49 50

000
AXUS43 KGID 012002
MISGRI

GID CWA HOURLY WEATHER ROUNDUP
NATIONAL WEATHER SERVICE HASTINGS NE
300 PM CDT WED JUL 01 2015

NOTE: "FAIR" INDICATES FEW OR NO CLOUDS BELOW 12,000 FEET WITH NO
SIGNIFICANT WEATHER AND/OR OBSTRUCTIONS TO VISIBILITY.

...SOUTH CENTRAL NEBRASKA...

CITY           SKY/WX    TMP DP  RH WIND       PRES   REMARKS
GRAND ISLAND   PTSUNNY   81  67  62 E6        29.91S
HASTINGS       SUNNY     82  69  64 N10       29.90R
KEARNEY        SUNNY     81  68  65 NE10      29.91F
ORD            SUNNY     81  67  62 SE6       29.90F
YORK           MOSUNNY   81  68  65 E7        29.89S
AURORA         MOSUNNY   82  68  63 E7        29.89S
LEXINGTON      SUNNY     88  67  49 E5        29.92S HX  90
HOLDREGE       SUNNY     83  66  56 NE10G16   29.92S
HEBRON         SUNNY     87  68  53 NE12      29.84S HX  91

...NEBRASKA PANHANDLE...

CITY           SKY/WX    TMP DP  RH WIND       PRES   REMARKS
CHADRON        SUNNY     89  61  38 N8        29.99S
ALLIANCE       SUNNY     88  53  30 VRB6      30.03S
SCOTTSBLUFF    SUNNY     93  48  21 VRB3      30.03F
SIDNEY         SUNNY     90  55  30 N8        30.07S

...WESTERN AND NORTH CENTRAL NEBRASKA...

CITY           SKY/WX    TMP DP  RH WIND       PRES   REMARKS
VALENTINE      SUNNY     86  65  49 N9        29.93S
AINSWORTH      MOSUNNY   85  66  52 N6        29.93S
ONEILL         CLOUDY    77  67  70 CALM      29.93S
BROKEN BOW     SUNNY     86  68  54 E3        29.92F
IMPERIAL       SUNNY     95  57  27 NE10      29.97F HX  94
NORTH PLATTE   SUNNY     94  56  27 N10G22    29.92F HX  92
MCCOOK         MOSUNNY   95  61  32 NE8       29.91F HX  95

...EASTERN NEBRASKA...

CITY           SKY/WX    TMP DP  RH WIND       PRES   REMARKS
NORFOLK        MOSUNNY   82  68  62 E13       29.89S
SO SIOUX CITY  PTSUNNY   76  66  71 E9        29.90S
TEKAMAH        SUNNY     83  66  56 E10       29.88S
COLUMBUS       PTSUNNY   82  66  57 E8        29.89
ALBION         PTSUNNY   80  65  60 E7        29.90S
OMAHA EPPLEY   MOSUNNY   83  69  62 NE14      29.86F
MILLARD        PTSUNNY   82  70  66 NE7       29.86S
LINCOLN        MOSUNNY   86  70  58 E7        29.86S HX  90
NEBRASKA CITY  PTSUNNY   85  67  54 SE7       29.85S
BEATRICE       PTSUNNY   83  71  67 E5        29.84S
FALLS CITY     PTSUNNY   82  73  74 E10       29.83S

...NORTHERN KANSAS...

CITY           SKY/WX    TMP DP  RH WIND       PRES   REMARKS
GOODLAND       SUNNY     95  51  22 N16G24    29.99F HX  92
HILL CITY      SUNNY     97  63  32 NE15G24   29.89S HX  98
NORTON         CLEAR     91  57  31 NE12      29.90S HX  90
PHILLIPSBURG   SUNNY     97  63  32 N10G18    29.86F HX  98
SMITH CENTER   SUNNY     91  63  38 NE6       29.86S HX  92
HAYS           SUNNY     97  61  30 N20       29.85R HX  97
RUSSELL        MOSUNNY   97  61  30 N13       29.82R HX  97
CONCORDIA      SUNNY     90  67  46 E10       29.82R HX  93
SALINA         PTSUNNY   94  61  33 N5        29.79S HX  94
TOPEKA         PTSUNNY   88  73  61 S10       29.79F HX  95



USA.gov is the U.S. government's official web portal to all federal, state and local government web resources and services.